TimeCET,TemperatureF,Dew PointF,Humidity,Sea Level PressureIn,VisibilityMPH,Wind Direction,Wind SpeedMPH,Gust SpeedMPH,PrecipitationIn,Events,Conditions,WindDirDegrees,DateUTC
12:25 AM,42.8,30.2,61,30.27,6.2,North,-9999.0,-,N/A,,Scattered Clouds,0,2013-12-06 23:25:00
12:55 AM,42.8,30.2,61,30.27,6.2,North,-9999.0,-,N/A,,Scattered Clouds,0,2013-12-06 23:55:00
1:00 AM,43,30,48,30.30,17,,13.4,,,,Partly Cloudy,,2013-12-07 00:00:00
1:25 AM,42.8,30.2,61,30.27,6.2,North,-9999.0,-,N/A,,Scattered Clouds,0,2013-12-07 00:25:00
1:55 AM,42.8,32.0,66,30.27,6.2,North,-9999.0,-,N/A,,Partly Cloudy,0,2013-12-07 00:55:00
2:25 AM,42.8,30.2,61,30.27,6.2,North,-9999.0,-,N/A,,Scattered Clouds,0,2013-12-07 01:25:00
2:55 AM,42.8,33.8,70,30.27,6.2,North,-9999.0,-,N/A,,Mostly Cloudy,0,2013-12-07 01:55:00
3:25 AM,42.8,33.8,70,30.27,6.2,North,-9999.0,-,N/A,,Mostly Cloudy,0,2013-12-07 02:25:00
3:55 AM,42.8,33.8,70,30.27,6.2,North,-9999.0,-,N/A,,Overcast,0,2013-12-07 02:55:00
4:00 AM,43,33,58,30.30,14,,13.4,,,,Overcast,,2013-12-07 03:00:00
4:25 AM,42.8,35.6,76,30.27,6.2,North,-9999.0,-,N/A,,Mostly Cloudy,0,2013-12-07 03:25:00
4:55 AM,42.8,37.4,81,30.27,5.0,North,-9999.0,-,N/A,,Mostly Cloudy,0,2013-12-07 03:55:00
5:25 AM,41.0,39.2,93,30.27,-9999.0,North,-9999.0,-,N/A,,Mostly Cloudy,0,2013-12-07 04:25:00
5:55 AM,41.0,39.2,93,30.27,5.6,North,-9999.0,-,N/A,,Mostly Cloudy,0,2013-12-07 04:55:00
6:25 AM,42.8,41.0,93,30.24,4.3,North,-9999.0,-,N/A,,Mostly Cloudy,0,2013-12-07 05:25:00
6:55 AM,42.8,41.0,93,30.24,6.2,North,-9999.0,-,N/A,,Overcast,0,2013-12-07 05:55:00
7:00 AM,43,41,92,30.26,11,,2.2,,,,Partly Cloudy,,2013-12-07 06:00:00
7:25 AM,42.8,41.0,93,30.24,6.2,North,-9999.0,-,N/A,,Mostly Cloudy,0,2013-12-07 06:25:00
7:55 AM,44.6,42.8,93,30.24,3.7,North,-9999.0,-,N/A,,Heavy Drizzle,0,2013-12-07 06:55:00
8:25 AM,46.4,42.8,87,30.21,6.2,North,-9999.0,-,N/A,Rain,Light Drizzle,0,2013-12-07 07:25:00
8:55 AM,46.4,42.8,87,30.21,6.2,North,-9999.0,-,N/A,Rain,Light Rain,0,2013-12-07 07:55:00
9:25 AM,46.4,42.8,87,30.21,6.2,North,-9999.0,-,N/A,,Mostly Cloudy,0,2013-12-07 08:25:00
9:55 AM,46.4,42.8,87,30.21,6.2,North,-9999.0,-,N/A,,Mostly Cloudy,0,2013-12-07 08:55:00
10:00 AM,47,43,80,30.24,11,,17.9,,,Rain,Rain,,2013-12-07 09:00:00
10:25 AM,48.2,42.8,82,30.21,6.2,North,-9999.0,-,N/A,Rain,Light Rain,0,2013-12-07 09:25:00
10:55 AM,48.2,42.8,82,30.21,6.2,North,-9999.0,-,N/A,,Mostly Cloudy,0,2013-12-07 09:55:00
11:25 AM,48.2,42.8,82,30.21,6.2,North,-9999.0,-,N/A,,Mostly Cloudy,0,2013-12-07 10:25:00
11:55 AM,48.2,42.8,82,30.21,6.2,North,-9999.0,-,N/A,,Mostly Cloudy,0,2013-12-07 10:55:00
12:25 PM,48.2,42.8,82,30.21,6.2,North,-9999.0,-,N/A,,Mostly Cloudy,0,2013-12-07 11:25:00
12:55 PM,48.2,42.8,82,30.21,6.2,North,-9999.0,-,N/A,,Mostly Cloudy,0,2013-12-07 11:55:00
1:00 PM,47,42,78,30.22,14,,17.9,,,,Partly Cloudy,,2013-12-07 12:00:00
1:25 PM,48.2,42.8,82,30.18,6.2,North,-9999.0,-,N/A,,Mostly Cloudy,0,2013-12-07 12:25:00
1:55 PM,48.2,42.8,82,30.18,6.2,North,-9999.0,-,N/A,,Mostly Cloudy,0,2013-12-07 12:55:00
2:25 PM,48.2,42.8,82,30.18,6.2,North,-9999.0,-,N/A,,Mostly Cloudy,0,2013-12-07 13:25:00
2:55 PM,48.2,41.0,76,30.18,6.2,North,-9999.0,-,N/A,,Scattered Clouds,0,2013-12-07 13:55:00
3:25 PM,48.2,42.8,82,30.18,6.2,North,-9999.0,-,N/A,,Scattered Clouds,0,2013-12-07 14:25:00
3:55 PM,48.2,41.0,76,30.18,6.2,North,-9999.0,-,N/A,,Mostly Cloudy,0,2013-12-07 14:55:00
4:00 PM,48,42,71,30.21,17,,20.1,,,,Partly Cloudy,,2013-12-07 15:00:00
4:25 PM,48.2,41.0,76,30.18,6.2,North,-9999.0,-,N/A,,Scattered Clouds,0,2013-12-07 15:25:00
4:55 PM,48.2,41.0,76,30.18,6.2,North,-9999.0,-,N/A,,Partly Cloudy,0,2013-12-07 15:55:00
5:25 PM,48.2,41.0,76,30.18,6.2,North,-9999.0,-,N/A,,Partly Cloudy,0,2013-12-07 16:25:00
5:55 PM,48.2,41.0,76,30.18,6.2,North,-9999.0,-,N/A,,Partly Cloudy,0,2013-12-07 16:55:00
6:25 PM,48.2,41.0,76,30.18,6.2,North,-9999.0,-,N/A,,Partly Cloudy,0,2013-12-07 17:25:00
6:55 PM,48.2,41.0,76,30.18,6.2,North,-9999.0,-,N/A,,Partly Cloudy,0,2013-12-07 17:55:00
7:00 PM,49,41,65,30.21,22,,20.1,,,,Partly Cloudy,,2013-12-07 18:00:00
7:25 PM,48.2,41.0,76,30.18,6.2,North,-9999.0,-,N/A,,Unknown,0,2013-12-07 18:25:00
7:55 PM,48.2,41.0,76,30.18,6.2,North,-9999.0,-,N/A,,Partly Cloudy,0,2013-12-07 18:55:00
8:25 PM,48.2,41.0,76,30.18,6.2,North,-9999.0,-,N/A,,Partly Cloudy,0,2013-12-07 19:25:00
8:55 PM,48.2,41.0,76,30.18,6.2,North,-9999.0,-,N/A,,Partly Cloudy,0,2013-12-07 19:55:00
9:25 PM,48.2,41.0,76,30.18,6.2,North,-9999.0,-,N/A,,Partly Cloudy,0,2013-12-07 20:25:00
9:55 PM,48.2,41.0,76,30.18,6.2,North,-9999.0,-,N/A,,Partly Cloudy,0,2013-12-07 20:55:00
10:00 PM,48,41,70,30.21,19,,20.1,,,,Scattered Clouds,,2013-12-07 21:00:00
10:25 PM,48.2,41.0,76,30.21,6.2,North,-9999.0,-,N/A,,Partly Cloudy,0,2013-12-07 21:25:00
10:55 PM,48.2,41.0,76,30.18,6.2,North,-9999.0,-,N/A,,Unknown,0,2013-12-07 21:55:00
11:25 PM,48.2,41.0,76,30.18,6.2,North,-9999.0,-,N/A,,Partly Cloudy,0,2013-12-07 22:25:00
11:55 PM,48.2,42.8,82,30.18,6.2,North,-9999.0,-,N/A,,Scattered Clouds,0,2013-12-07 22:55:00